Theta_e
324 324 322 322 319 319 321 323 320 323 322 323 325 326 330 331 332 332 331 328 329 328 330 333 326 325 322 322 323 321 314 314 321 329 330 321 324 325 326 325 331 331 328 323 318 314 314 314 313
324 324 322 321 319 320 320 316 323 322 329 328 328 330 331 333 334 333 330 328 329 324 332 330 325 325 321 317 316 327 328 316 317 319 318 317 319 317 323 330 331 329 330 327 322 319 319 317 315
324 323 321 316 316 319 318 317 320 324 323 321 328 331 332 333 334 331 332 327 327 326 328 325 330 327 319 312 312 326 329 315 316 311 314 314 313 314 321 326 330 329 330 329 327 324 317 316 316
323 322 319 317 320 318 316 318 319 326 323 322 329 331 333 334 333 334 329 327 329 329 327 326 329 328 320 311 316 331 325 316 311 311 311 311 312 313 317 316 326 327 327 315 317 325 315 316 315
321 321 317 318 318 317 313 319 322 319 319 324 324 331 333 334 335 334 326 328 328 324 323 322 324 328 319 311 310 314 315 310 308 309 309 309 310 310 312 312 314 321 326 313 315 316 314 315 314
321 318 319 319 317 316 317 320 320 319 320 325 330 333 334 334 335 334 327 326 324 321 319 317 326 329 320 315 312 311 310 309 309 309 309 309 309 309 309 309 310 314 313 311 312 313 314 314 314
321 321 318 316 317 316 320 320 319 319 322 324 330 330 332 334 335 333 325 326 322 320 317 317 329 330 325 316 313 312 311 311 311 311 312 311 309 308 308 309 310 311 311 313 314 315 315 315 314
318 319 323 317 318 317 316 320 319 320 320 325 326 326 332 333 334 331 324 325 321 321 317 317 328 331 328 320 314 314 313 313 313 313 313 314 313 311 309 309 311 312 313 314 314 315 315 315 315
318 318 321 321 317 318 315 316 316 317 321 326 324 323 327 333 332 328 325 325 319 321 317 318 321 330 330 323 315 315 316 316 315 314 314 314 314 313 312 311 311 312 313 314 314 315 315 315 316
318 320 319 317 315 316 315 315 316 317 322 323 323 324 326 333 331 327 326 323 321 320 318 318 317 321 327 326 319 317 318 318 317 316 315 315 315 315 314 313 312 312 313 313 314 315 316 316 316
318 320 316 316 315 314 314 315 315 316 317 322 321 322 325 333 331 328 325 323 323 321 320 319 317 316 319 321 320 319 319 319 319 319 318 317 317 317 317 315 313 313 313 313 314 316 316 316 316
319 318 317 318 319 315 313 314 314 315 319 318 319 321 323 330 331 328 326 326 325 323 322 321 319 317 317 318 318 319 319 320 320 321 320 320 319 319 319 317 316 315 316 315 314 315 316 316 316
316 316 316 318 316 316 314 313 313 315 317 317 318 320 321 323 329 329 327 326 327 327 323 322 321 319 319 319 318 319 320 320 321 321 322 322 322 321 320 320 319 319 318 318 317 317 317 317 317
319 314 315 315 317 319 314 312 313 316 316 316 316 319 321 321 322 328 329 327 327 327 328 323 322 322 321 321 321 320 320 321 321 322 322 323 323 323 322 322 322 321 320 320 319 319 319 317 317
314 316 314 319 315 314 314 313 311 315 314 315 317 319 321 322 323 322 324 327 328 328 329 328 323 323 323 323 323 323 322 322 322 323 323 324 324 324 323 323 323 323 323 322 321 321 320 319 318
316 316 319 315 313 314 315 322 314 316 315 315 317 319 320 323 321 322 324 326 329 329 330 329 328 324 324 324 324 325 325 324 324 324 324 325 325 325 325 325 324 324 324 324 323 323 322 321 321
319 318 318 318 312 311 312 314 313 315 313 314 316 320 320 320 322 322 323 323 326 329 330 330 330 329 327 327 327 327 327 327 327 327 327 327 327 327 327 327 326 325 325 324 324 324 324 323 323
322 319 319 318 317 310 310 310 310 313 312 314 314 317 321 320 318 319 320 323 325 327 329 330 330 330 330 330 329 329 329 329 329 327 327 326 325 325 325 325 324 324 325 325 325 324 323 322 321
317 321 321 315 317 313 314 315 315 315 312 312 313 314 318 320 319 320 320 322 324 325 328 329 330 330 331 332 331 331 331 329 329 328 327 326 325 325 325 324 324 323 324 323 322 322 321 320 321
316 318 318 316 311 311 312 311 310 311 311 315 315 314 314 317 319 320 319 321 322 321 321 325 329 329 330 331 331 331 331 329 328 328 327 326 326 325 325 324 324 323 322 322 322 321 321 321 321
310 310 310 313 309 307 308 310 309 310 309 311 312 314 313 314 316 318 319 318 319 319 320 321 322 325 327 329 331 332 332 332 330 329 327 327 325 325 324 324 324 324 322 322 322 321 321 322 325
312 309 309 309 310 310 307 311 309 311 313 307 309 313 314 314 314 316 317 318 318 317 318 319 320 323 324 327 329 331 331 331 331 330 328 328 327 323 325 325 325 325 325 324 323 324 325 325 324
312 308 310 310 310 310 308 306 306 306 311 314 310 312 314 315 315 315 316 316 316 317 317 319 319 321 323 325 327 329 330 331 331 331 331 327 326 322 323 324 324 323 322 322 323 326 326 323 321
307 310 309 306 311 315 310 308 308 308 308 308 309 312 314 316 316 315 316 315 316 316 315 314 316 320 322 325 327 328 328 329 330 330 329 327 325 322 322 322 322 322 322 321 323 324 322 320 319
311 314 316 317 316 316 303 306 314 307 306 306 307 312 314 316 316 316 315 315 316 315 314 313 312 314 318 321 324 327 328 328 328 330 329 326 325 323 323 323 322 321 321 321 321 321 320 319 318
313 316 314 316 311 311 303 309 311 306 310 309 311 310 309 311 314 315 316 315 315 315 314 312 312 312 315 317 319 325 327 328 328 329 329 326 325 323 323 322 321 320 320 320 320 320 318 318 318
307 315 309 308 296 304 305 304 305 304 304 305 306 308 310 311 311 312 312 314 313 313 312 312 312 312 313 314 317 324 327 328 329 329 330 327 327 325 323 322 320 319 321 322 319 318 318 318 319
308 308 310 308 310 307 306 305 309 307 305 304 304 307 312 312 312 311 311 311 311 310 310 311 311 312 313 314 320 325 326 327 327 328 329 329 327 324 323 321 320 320 320 319 318 317 318 318 313
305 308 306 308 307 309 307 309 301 305 306 306 306 307 308 309 309 310 311 310 309 309 310 311 311 312 314 317 320 321 321 320 322 325 326 327 325 326 322 321 320 319 318 317 317 317 312 305 299
304 306 308 309 307 304 306 311 303 302 301 303 305 308 310 310 308 309 310 309 310 310 310 311 311 311 312 312 312 311 311 310 310 313 324 323 323 323 322 321 320 319 317 317 316 307 299 297 297
Wind_Speed
6 7 7 3 4 4 1 1 1 3 1 1 6 4 4 4 2 2 19 18 19 16 14 11 8 9 9 10 10 9 9 11 13 14 14 10 9 8 8 11 17 17 18 15 13 13 12 13 14
5 6 4 2 4 3 2 2 4 3 7 13 9 7 4 2 3 12 20 22 19 15 14 10 10 10 10 10 11 13 12 12 14 15 13 10 10 11 16 17 17 17 18 16 15 14 16 17 18
3 4 1 4 2 3 2 3 3 7 10 3 4 5 3 2 7 24 19 24 19 16 14 13 12 10 10 11 13 16 11 13 16 15 16 15 15 16 17 18 18 17 17 17 15 15 16 17 17
2 1 5 4 2 1 2 2 5 12 2 2 7 5 4 3 17 14 24 22 20 17 15 14 12 11 11 12 15 16 12 14 15 14 15 14 15 16 16 17 18 16 13 14 14 14 16 16 17
1 4 4 3 2 2 2 3 14 5 4 5 2 3 8 12 10 18 23 21 18 17 15 14 12 12 11 12 12 13 13 14 15 13 13 13 14 14 15 14 14 14 13 13 13 13 14 15 15
3 2 4 2 3 2 2 9 8 4 5 5 5 9 8 9 13 20 21 20 16 14 16 14 14 13 12 12 11 12 11 12 13 13 13 13 14 15 14 13 12 13 11 12 12 12 13 14 15
3 3 4 3 2 4 2 11 5 6 6 4 10 5 6 13 17 19 21 19 17 13 14 15 16 14 12 12 12 12 12 11 12 12 13 13 14 15 13 13 12 11 10 11 11 12 13 13 14
4 4 2 3 1 3 3 7 3 6 4 7 9 4 6 19 21 21 22 19 18 15 13 14 16 15 13 12 11 11 12 11 11 12 13 13 14 13 12 11 11 10 10 10 10 10 10 11 11
5 3 3 4 5 1 1 3 3 4 7 8 8 4 8 21 23 24 24 21 20 18 16 15 15 15 13 12 12 12 11 11 11 11 11 11 11 11 11 10 10 9 8 7 7 8 8 8 9
5 3 8 4 3 2 2 3 5 4 5 7 8 8 12 24 26 27 27 26 23 21 19 16 15 15 14 13 12 12 11 11 10 10 9 9 9 8 9 9 8 7 7 5 5 6 7 8 8
6 5 6 6 5 2 2 2 3 6 3 13 17 15 19 28 28 28 27 26 25 21 19 18 16 15 14 13 12 12 11 9 9 8 8 8 7 7 7 6 6 6 5 4 4 4 6 6 6
4 6 10 5 6 3 4 4 2 11 11 5 16 14 21 30 30 30 30 29 25 24 21 18 17 16 14 13 12 10 9 9 8 7 7 6 6 6 5 5 4 4 3 3 3 2 4 5 5
2 5 12 8 4 3 4 6 5 15 16 10 11 17 22 28 30 30 30 28 26 24 21 20 18 17 15 14 13 11 10 9 8 7 6 5 4 4 4 4 3 3 2 2 2 1 3 3 4
6 8 5 5 5 5 2 3 3 8 10 16 13 19 23 26 28 31 33 29 28 25 23 22 21 18 17 15 13 13 12 11 9 8 7 6 5 4 3 3 2 2 2 1 0 1 2 2 3
5 4 3 5 1 4 1 3 4 18 12 15 16 19 23 28 29 28 29 28 28 26 23 23 22 20 19 17 16 14 13 13 12 11 10 9 8 7 6 4 4 4 3 3 2 2 2 2 2
4 1 2 1 7 4 7 11 10 16 14 17 19 21 23 27 26 27 27 28 28 26 25 24 23 23 21 20 18 17 16 16 14 14 13 12 11 10 9 7 7 7 6 5 5 4 4 4 5
2 3 6 3 11 3 4 3 7 6 14 20 20 23 24 25 28 28 27 27 27 27 26 25 25 24 22 20 19 18 16 16 15 15 15 13 11 10 10 9 9 9 8 7 6 6 5 5 6
6 4 0 4 2 1 2 6 10 13 11 19 21 23 26 29 29 26 27 27 27 28 28 27 26 25 23 21 21 20 19 18 16 14 14 13 12 11 11 9 9 10 9 7 6 5 6 8 10
6 3 6 0 4 3 6 11 16 23 19 20 24 26 28 32 28 27 26 26 27 29 30 30 30 28 28 27 26 26 24 22 20 19 15 16 15 15 13 12 11 8 6 6 7 9 8 10 12
7 4 2 3 3 4 6 10 13 15 17 31 33 31 32 32 31 30 29 28 30 29 32 33 32 31 30 29 27 27 24 23 22 21 16 17 18 18 16 14 13 12 11 11 10 10 12 14 15
4 7 5 4 3 2 4 10 10 10 24 31 32 30 29 36 33 34 33 33 30 32 33 33 33 33 32 31 30 30 28 28 25 23 21 20 17 19 18 17 17 16 15 14 14 14 15 17 17
6 7 6 4 2 3 1 6 6 8 18 12 25 36 34 31 37 35 36 35 34 33 31 32 31 33 32 32 33 34 32 30 28 25 23 21 18 20 21 21 18 18 17 18 17 20 19 15 12
5 7 8 5 4 4 4 3 7 5 13 18 24 34 35 37 32 40 38 36 35 33 33 34 33 34 33 33 33 34 35 33 29 25 21 23 20 16 20 22 22 20 21 20 20 19 15 13 13
8 6 8 5 3 5 5 6 6 6 8 6 15 34 38 37 36 35 39 37 35 34 33 35 37 38 37 37 36 37 36 34 32 28 23 24 17 12 14 16 19 21 19 20 18 15 13 12 13
7 13 2 2 3 8 3 6 21 6 5 6 11 25 30 35 39 39 35 37 37 38 37 36 37 41 39 39 40 39 37 34 30 28 26 25 22 20 18 17 17 17 17 18 16 15 13 12 14
10 9 5 6 5 3 1 9 9 7 21 22 25 22 22 27 33 37 38 39 40 41 40 38 36 37 37 37 38 40 38 37 33 30 29 27 24 22 21 20 17 17 17 15 15 13 13 14 14
5 9 7 5 2 2 5 7 10 9 10 14 21 24 29 24 25 29 34 39 42 40 40 38 36 35 35 35 34 36 36 37 35 32 30 30 27 25 21 20 17 18 23 17 14 14 14 14 12
12 11 5 3 5 5 5 5 9 3 8 10 11 21 30 31 31 31 28 31 34 39 40 37 35 34 34 33 33 34 34 34 33 32 31 31 30 27 23 19 19 19 15 14 15 15 15 13 10
4 9 5 6 6 6 2 6 8 9 10 9 13 19 24 28 28 27 29 26 26 29 34 34 34 33 34 34 34 33 33 33 32 31 31 29 29 27 24 21 20 20 18 17 16 15 12 9 7
7 9 17 5 6 2 2 10 6 8 7 10 18 17 19 26 26 23 26 25 24 26 29 30 31 31 32 32 32 33 33 34 34 33 30 29 27 27 27 24 23 22 19 18 15 13 10 8 7
Wind_Direction
291 322 330 317 53 65 78 189 119 120 159 193 131 147 153 111 162 152 148 156 152 152 143 146 125 116 117 121 123 119 125 112 115 114 112 134 123 118 123 110 99 100 94 90 85 80 77 76 75
288 322 313 60 84 69 272 267 177 163 132 111 104 102 56 85 127 145 148 151 152 154 147 145 135 121 120 119 117 110 100 104 111 115 111 122 118 115 109 105 102 99 96 88 89 79 74 69 71
277 321 323 84 95 151 199 214 160 134 134 125 115 84 89 121 152 144 149 150 154 157 150 143 136 124 115 107 111 112 110 100 110 104 110 103 110 111 107 104 103 99 96 97 92 80 75 73 69
266 157 60 79 138 240 195 184 158 143 229 151 133 80 85 140 136 150 150 150 156 156 149 146 141 128 111 108 112 110 117 101 102 101 101 104 106 106 109 109 108 106 103 91 89 83 72 73 68
278 101 65 77 300 253 254 190 151 147 132 143 159 146 118 138 150 153 152 152 161 153 152 149 143 133 118 110 116 115 112 100 102 104 103 105 104 102 103 105 106 106 98 84 86 81 73 74 64
342 90 78 130 277 278 252 177 146 140 143 151 120 126 150 164 161 159 158 156 162 158 155 155 151 139 126 118 118 117 116 110 103 100 101 101 103 102 98 98 99 100 94 81 81 75 72 69 60
100 41 146 126 273 310 196 160 158 165 153 191 151 128 160 174 164 165 163 164 165 167 162 161 160 153 138 127 120 120 118 114 107 102 101 103 111 106 100 95 94 95 87 85 81 74 66 59 55
104 81 146 140 171 279 149 162 189 179 178 147 165 183 175 172 164 168 168 172 172 171 173 173 168 166 154 137 127 121 118 115 114 107 102 104 105 99 97 98 95 90 86 80 74 68 61 57 57
132 87 187 211 161 316 37 190 176 169 149 167 187 194 157 172 167 172 177 176 181 178 179 181 174 171 165 152 142 135 129 124 118 111 106 104 103 100 96 100 99 99 96 87 81 70 61 58 56
143 148 209 167 165 177 1 203 180 166 158 206 199 201 173 179 177 180 184 181 184 183 182 183 179 176 174 170 159 153 145 134 122 116 116 114 114 111 103 101 106 105 103 92 75 64 57 54 53
180 180 191 192 134 53 44 85 205 165 216 214 216 198 180 184 185 190 191 192 185 186 191 183 183 184 181 179 174 168 158 145 136 131 126 121 119 120 114 108 108 113 111 109 90 64 47 47 54
163 187 174 167 189 90 338 312 270 217 237 246 232 216 189 191 195 196 196 197 194 193 191 190 188 188 188 188 189 184 177 164 157 153 144 134 125 119 117 116 110 104 109 114 105 75 39 43 55
241 192 197 188 186 53 359 304 270 268 260 257 218 208 207 202 204 203 202 204 201 202 200 197 198 196 195 197 197 197 195 190 183 179 175 166 156 148 141 132 130 124 118 113 121 83 38 40 43
223 185 202 178 210 254 314 322 31 286 264 227 216 213 212 213 211 207 207 205 204 205 207 206 203 204 207 204 207 209 209 207 206 206 206 203 204 199 189 179 169 176 186 181 166 39 24 33 38
139 158 22 273 266 183 192 319 220 278 284 228 216 216 217 216 216 218 215 209 206 206 208 214 213 212 213 215 214 215 219 221 221 222 224 226 228 228 228 230 229 236 243 250 268 291 306 329 345
111 72 162 207 171 231 162 260 260 290 267 246 228 221 219 220 223 222 220 217 213 211 212 213 216 218 219 222 224 221 224 228 228 232 233 233 232 234 238 241 243 247 254 261 268 277 288 299 307
349 172 205 284 210 139 180 265 240 257 241 246 240 230 222 222 223 221 221 220 219 218 217 216 218 221 223 225 226 227 225 229 235 237 237 239 236 237 240 245 247 248 255 263 273 286 301 313 307
187 192 282 206 265 189 122 269 275 264 255 245 252 239 231 226 227 222 221 220 220 223 224 223 224 223 223 223 224 227 226 228 231 235 237 243 242 241 250 255 256 257 256 258 275 292 310 313 314
143 155 201 281 245 232 230 246 247 252 255 256 247 246 234 234 231 227 227 227 225 224 226 226 225 226 226 225 225 226 229 230 233 232 234 237 242 243 249 252 260 262 267 268 274 286 292 297 303
140 132 202 293 269 184 292 261 261 245 238 246 250 246 240 235 234 229 226 227 228 226 227 226 229 227 230 232 233 234 235 236 237 239 239 244 245 246 248 252 256 261 263 267 273 277 282 286 289
155 148 161 210 295 221 286 277 242 242 239 242 244 247 251 245 233 231 226 226 228 230 227 228 229 229 227 230 233 235 237 239 239 236 238 243 247 248 250 253 257 262 262 262 264 267 265 271 285
185 166 146 117 47 260 108 285 265 248 237 223 238 243 244 250 242 235 235 231 229 232 233 233 231 233 231 230 231 235 238 240 243 244 244 251 259 242 250 252 254 256 255 258 261 263 275 272 281
202 149 175 146 82 359 207 283 270 271 245 235 227 238 242 241 251 241 234 231 233 234 235 236 234 233 233 232 234 238 241 244 247 248 250 250 245 247 243 246 247 249 253 257 261 264 263 277 282
134 76 37 43 82 270 212 204 240 219 228 237 229 237 238 240 240 249 241 237 234 234 236 237 237 234 232 233 234 238 241 243 242 239 237 239 240 235 232 241 245 249 250 257 258 258 265 271 281
129 152 146 162 202 238 293 172 247 255 268 242 241 243 235 236 240 242 245 242 236 235 235 236 236 234 232 234 235 238 241 240 238 236 230 235 239 239 246 251 252 252 246 249 250 254 258 265 263
164 172 164 170 200 245 141 222 246 236 250 256 261 272 264 249 242 244 245 247 245 240 238 233 232 231 232 233 235 235 237 238 236 233 229 233 239 241 241 249 247 247 241 236 237 240 248 250 246
180 202 159 85 82 51 217 286 295 257 278 275 259 258 253 250 246 250 250 246 245 241 236 233 231 229 230 233 233 233 234 236 235 232 227 232 233 236 238 245 249 241 241 229 232 245 241 236 249
183 149 162 199 205 245 245 259 233 319 260 269 281 257 254 259 262 257 254 253 248 238 233 229 227 226 228 228 230 232 234 236 237 233 229 224 232 232 235 236 239 229 225 236 237 225 231 240 238
135 186 192 162 180 190 251 249 196 223 226 236 262 274 281 285 283 270 258 251 241 230 227 225 223 222 223 224 225 230 233 235 235 230 225 220 227 224 226 229 227 231 232 227 225 228 218 213 221
185 190 199 185 220 293 126 269 179 231 241 245 277 296 299 298 287 267 247 236 225 220 220 221 220 221 221 224 227 231 234 235 232 226 215 214 215 217 222 225 224 230 217 219 215 206 201 204 222